This is the latest recevied weather packets stored in our database for station/object OE6JUE. If no packets are shown the sender has not sent any weather packets the latest 10 day(s).
| Time | Temp. | Humidity | Pressure | Rain* | Wind** | Luminosity | Snow |
|---|---|---|---|---|---|---|---|
| 1777898690 | 26.67° C | 27% | 1015.9 hPa | 0 mm | - | - | - |
| 1777898390 | 26.67° C | 27% | 1015.8 hPa | 0 mm | - | - | - |
| 1777898089 | 27.22° C | 30% | 1016 hPa | 0 mm | - | - | - |
| 1777897790 | 27.22° C | 26% | 1016 hPa | 0 mm | - | - | - |
| 1777897490 | 27.22° C | 26% | 1016 hPa | 0 mm | - | - | - |
| 1777897189 | 27.22° C | 28% | 1016.1 hPa | 0 mm | - | - | - |
| 1777896889 | 26.11° C | 27% | 1016.3 hPa | 0 mm | - | - | - |
| 1777896589 | 26.11° C | 30% | 1016.3 hPa | 0 mm | - | - | - |
| 1777896289 | 26.11° C | 30% | 1016.4 hPa | 0 mm | - | - | - |
| 1777895990 | 26.11° C | 27% | 1016.4 hPa | 0 mm | - | - | - |
| 1777895690 | 26.11° C | 28% | 1016.5 hPa | 0 mm | - | - | - |
| 1777895389 | 25.56° C | 31% | 1016.5 hPa | 0 mm | - | - | - |
| 1777895089 | 24.44° C | 30% | 1016.7 hPa | 0 mm | - | - | - |
| 1777894790 | 24.44° C | 30% | 1016.7 hPa | 0 mm | - | - | - |
| 1777894490 | 25° C | 32% | 1016.7 hPa | 0 mm | - | - | - |
| 1777894189 | 25° C | 32% | 1016.7 hPa | 0 mm | - | - | - |
| 1777893890 | 24.44° C | 32% | 1016.9 hPa | 0 mm | - | - | - |
| 1777893589 | 24.44° C | 31% | 1016.8 hPa | 0 mm | - | - | - |
| 1777893290 | 25° C | 31% | 1017 hPa | 0 mm | - | - | - |
| 1777892989 | 25° C | 32% | 1017.1 hPa | 0 mm | - | - | - |
| 1777892689 | 24.44° C | 32% | 1017.1 hPa | 0 mm | - | - | - |
| 1777892389 | 24.44° C | 33% | 1017.2 hPa | 0 mm | - | - | - |
| 1777892090 | 23.89° C | 32% | 1017.2 hPa | 0 mm | - | - | - |
| 1777891789 | 23.33° C | 32% | 1017.3 hPa | 0 mm | - | - | - |
| 1777891489 | 23.89° C | 31% | 1017.3 hPa | 0 mm | - | - | - |
* Rain latest hour (hover to see other rain measurements)
** Current wind speed in m/s (hover to see current wind gust speed)